Torna al catalogo

ECHO 1 DEB

METAL OBJ

AttivoLEO
NORAD 53·DEBRIS·🇺🇸 United States

Lanciato Aug 12, 1960 da Cape Canaveral Space Force Station

Loading…

Prossimi Passaggi (prossime 24 ore)

TLE

AggiornatoSource: Space-Track

Epoca: Sep 14, 2026, 05:10 UTC

1 00053U 60009E   26257.21566642 -.00000088  00000-0 -29809-4 0  9997
2 00053  47.2770  67.6989 0098023 339.5538  20.1341 12.17412847946276

Traccia ECHO 1 DEB in tempo reale con AllMySat

Download on the App Store